Time,TemperatureF,DewpointF,PressureIn,WindDirection,WindDirectionDegrees,WindSpeedMPH,WindSpeedGustMPH,Humidity,HourlyPrecipIn,Conditions,Clouds,dailyrainin,SoftwareType,DateUTC
2013-08-16 00:00:00,58.6,57.8,30.08,North,355,0.0,2.0,97,0.00,,BKN055,0.00,VWS V14.00,2013-08-16 04:00:00,
2013-08-16 00:01:00,58.6,57.8,30.08,North,355,0.0,2.0,97,0.00,,BKN055,0.00,VWS V14.00,2013-08-16 04:01:00,
2013-08-16 00:10:00,58.5,57.7,30.08,North,355,0.0,3.0,97,0.00,,BKN055,0.00,VWS V14.00,2013-08-16 04:10:00,
2013-08-16 00:11:00,58.5,57.7,30.08,North,355,0.0,3.0,97,0.00,,BKN055,0.00,VWS V14.00,2013-08-16 04:11:00,
2013-08-16 00:20:00,58.4,57.8,30.08,North,355,0.0,0.0,98,0.00,,BKN055,0.00,VWS V14.00,2013-08-16 04:20:00,
2013-08-16 00:21:00,58.4,57.8,30.08,North,355,0.0,0.0,98,0.00,,BKN055,0.00,VWS V14.00,2013-08-16 04:21:00,
2013-08-16 00:30:00,58.2,57.4,30.08,North,355,0.0,2.0,97,0.00,,BKN055,0.00,VWS V14.00,2013-08-16 04:30:00,
2013-08-16 00:31:00,58.2,57.4,30.08,North,355,0.0,2.0,97,0.00,,BKN055,0.00,VWS V14.00,2013-08-16 04:31:00,
2013-08-16 00:40:00,58.0,57.2,30.08,North,355,0.0,2.0,97,0.00,,BKN055,0.00,VWS V14.00,2013-08-16 04:40:00,
2013-08-16 00:41:00,58.0,57.2,30.08,North,355,0.0,2.0,97,0.00,,BKN055,0.00,VWS V14.00,2013-08-16 04:41:00,
2013-08-16 00:50:00,57.8,57.2,30.07,North,355,0.0,1.0,98,0.00,,BKN055,0.00,VWS V14.00,2013-08-16 04:50:00,
2013-08-16 00:51:00,57.8,57.2,30.07,North,355,0.0,1.0,98,0.00,,BKN055,0.00,VWS V14.00,2013-08-16 04:51:00,
2013-08-16 01:00:00,57.8,57.2,30.07,North,355,0.0,0.0,98,0.00,,BKN055,0.00,VWS V14.00,2013-08-16 05:00:00,
2013-08-16 01:01:00,57.8,57.2,30.07,North,355,0.0,0.0,98,0.00,,BKN055,0.00,VWS V14.00,2013-08-16 05:01:00,
2013-08-16 01:10:00,57.8,57.2,30.07,North,355,0.0,3.0,98,0.00,,BKN055,0.00,VWS V14.00,2013-08-16 05:10:00,
2013-08-16 01:11:00,57.8,57.2,30.07,North,355,0.0,3.0,98,0.00,,BKN055,0.00,VWS V14.00,2013-08-16 05:11:00,
2013-08-16 01:20:00,57.7,57.1,30.07,North,355,0.0,3.0,98,0.00,,BKN055,0.00,VWS V14.00,2013-08-16 05:20:00,
2013-08-16 01:21:00,57.7,57.1,30.07,North,355,0.0,3.0,98,0.00,,BKN055,0.00,VWS V14.00,2013-08-16 05:21:00,
2013-08-16 01:30:00,57.6,57.0,30.07,NNW,342,1.0,4.0,98,0.00,,BKN055,0.00,VWS V14.00,2013-08-16 05:30:00,
2013-08-16 01:31:00,57.6,57.0,30.07,NNW,342,1.0,4.0,98,0.00,,BKN055,0.00,VWS V14.00,2013-08-16 05:31:00,
2013-08-16 01:40:00,57.4,56.8,30.07,North,11,0.0,4.0,98,0.00,,BKN055,0.00,VWS V14.00,2013-08-16 05:40:00,
2013-08-16 01:41:00,57.4,56.8,30.07,North,11,0.0,4.0,98,0.00,,BKN055,0.00,VWS V14.00,2013-08-16 05:41:00,
2013-08-16 01:50:00,57.1,56.5,30.07,NNW,340,0.0,3.0,98,0.00,,BKN055,0.00,VWS V14.00,2013-08-16 05:50:00,
2013-08-16 01:51:00,57.1,56.5,30.07,NNW,340,0.0,3.0,98,0.00,,BKN055,0.00,VWS V14.00,2013-08-16 05:51:00,
2013-08-16 02:00:00,56.7,56.1,30.07,NNW,340,0.0,0.0,98,0.00,,BKN055,0.00,VWS V14.00,2013-08-16 06:00:00,
2013-08-16 02:01:00,56.7,56.1,30.07,NNW,340,0.0,0.0,98,0.00,,BKN055,0.00,VWS V14.00,2013-08-16 06:01:00,
2013-08-16 02:10:00,56.6,56.0,30.07,NNW,341,2.0,2.0,98,0.00,,BKN055,0.00,VWS V14.00,2013-08-16 06:10:00,
2013-08-16 02:11:00,56.6,56.0,30.07,NNW,341,2.0,2.0,98,0.00,,BKN055,0.00,VWS V14.00,2013-08-16 06:11:00,
2013-08-16 02:20:00,56.4,55.8,30.08,NNW,337,0.0,5.0,98,0.00,,BKN055,0.00,VWS V14.00,2013-08-16 06:20:00,
2013-08-16 02:21:00,56.4,55.8,30.08,NNW,337,0.0,5.0,98,0.00,,BKN055,0.00,VWS V14.00,2013-08-16 06:21:00,
2013-08-16 02:30:00,56.3,55.7,30.08,NNW,337,0.0,0.0,98,0.00,,BKN055,0.00,VWS V14.00,2013-08-16 06:30:00,
2013-08-16 02:31:00,56.3,55.8,30.08,NNW,337,0.0,0.0,98,0.00,,BKN055,0.00,VWS V14.00,2013-08-16 06:31:00,
2013-08-16 02:40:00,56.0,55.5,30.08,NNW,337,0.0,0.0,98,0.00,,BKN055,0.00,VWS V14.00,2013-08-16 06:40:00,
2013-08-16 02:41:00,56.0,55.5,30.08,NNW,337,0.0,0.0,98,0.00,,BKN055,0.00,VWS V14.00,2013-08-16 06:41:00,
2013-08-16 02:50:00,55.7,55.2,30.08,NNW,337,0.0,0.0,98,0.00,,BKN055,0.00,VWS V14.00,2013-08-16 06:50:00,
2013-08-16 02:51:00,55.7,55.2,30.08,NNW,337,0.0,0.0,98,0.00,,BKN055,0.00,VWS V14.00,2013-08-16 06:51:00,
2013-08-16 03:00:00,55.6,55.0,30.08,NNW,338,1.0,2.0,98,0.00,,BKN055,0.00,VWS V14.00,2013-08-16 07:00:00,
2013-08-16 03:01:00,55.6,55.0,30.08,NNW,338,1.0,2.0,98,0.00,,BKN055,0.00,VWS V14.00,2013-08-16 07:01:00,
2013-08-16 03:10:00,55.5,55.0,30.08,NNW,339,1.0,3.0,98,0.00,,BKN055,0.00,VWS V14.00,2013-08-16 07:10:00,
2013-08-16 03:11:00,55.5,55.0,30.08,NNW,339,1.0,3.0,98,0.00,,BKN055,0.00,VWS V14.00,2013-08-16 07:11:00,
2013-08-16 03:20:00,55.4,54.8,30.08,NNW,338,0.0,1.0,98,0.00,,BKN055,0.00,VWS V14.00,2013-08-16 07:20:00,
2013-08-16 03:21:00,55.4,54.8,30.08,NNW,338,0.0,1.0,98,0.00,,BKN055,0.00,VWS V14.00,2013-08-16 07:21:00,
2013-08-16 03:30:00,55.2,54.7,30.08,NNW,339,0.0,2.0,98,0.00,,BKN055,0.00,VWS V14.00,2013-08-16 07:30:00,
2013-08-16 03:31:00,55.2,54.7,30.08,NNW,339,0.0,2.0,98,0.00,,BKN055,0.00,VWS V14.00,2013-08-16 07:31:00,
2013-08-16 03:40:00,55.1,54.5,30.08,NNW,346,1.0,3.0,98,0.00,,BKN055,0.00,VWS V14.00,2013-08-16 07:40:00,
2013-08-16 03:41:00,55.1,54.5,30.08,NNW,346,1.0,3.0,98,0.00,,BKN055,0.00,VWS V14.00,2013-08-16 07:41:00,
2013-08-16 03:50:00,54.9,54.3,30.08,NNW,347,0.0,2.0,98,0.00,,BKN055,0.00,VWS V14.00,2013-08-16 07:50:00,
2013-08-16 03:51:00,54.9,54.3,30.08,NNW,347,0.0,2.0,98,0.00,,BKN055,0.00,VWS V14.00,2013-08-16 07:51:00,
2013-08-16 04:00:00,54.9,54.3,30.08,NNW,342,1.0,4.0,98,0.00,,BKN055,0.00,VWS V14.00,2013-08-16 08:00:00,
2013-08-16 04:01:00,54.9,54.3,30.08,NNW,342,1.0,4.0,98,0.00,,BKN055,0.00,VWS V14.00,2013-08-16 08:01:00,
2013-08-16 04:10:00,54.7,54.2,30.08,NNW,339,0.0,4.0,98,0.00,,BKN055,0.00,VWS V14.00,2013-08-16 08:10:00,
2013-08-16 04:11:00,54.7,54.2,30.08,NNW,339,0.0,4.0,98,0.00,,BKN055,0.00,VWS V14.00,2013-08-16 08:11:00,
2013-08-16 04:20:00,54.4,53.8,30.08,NNW,329,1.0,3.0,98,0.00,,BKN055,0.00,VWS V14.00,2013-08-16 08:20:00,
2013-08-16 04:21:00,54.4,53.8,30.08,NNW,329,1.0,3.0,98,0.00,,BKN055,0.00,VWS V14.00,2013-08-16 08:21:00,
2013-08-16 04:30:00,54.3,53.8,30.08,NNW,330,2.0,4.0,98,0.00,,BKN055,0.00,VWS V14.00,2013-08-16 08:30:00,
2013-08-16 04:31:00,54.3,53.8,30.08,NNW,330,2.0,4.0,98,0.00,,BKN055,0.00,VWS V14.00,2013-08-16 08:31:00,
2013-08-16 04:40:00,54.1,53.5,30.08,NNW,337,3.0,4.0,98,0.00,,BKN055,0.00,VWS V14.00,2013-08-16 08:40:00,
2013-08-16 04:41:00,54.1,53.5,30.08,NNW,337,3.0,4.0,98,0.00,,BKN055,0.00,VWS V14.00,2013-08-16 08:41:00,
2013-08-16 04:50:00,54.2,53.7,30.08,NNW,338,0.0,4.0,98,0.00,,BKN055,0.00,VWS V14.00,2013-08-16 08:50:00,
2013-08-16 04:51:00,54.2,53.7,30.08,NNW,338,0.0,4.0,98,0.00,,BKN055,0.00,VWS V14.00,2013-08-16 08:51:00,
2013-08-16 05:00:00,54.3,54.0,30.08,NNW,338,2.0,3.0,99,0.00,,BKN055,0.00,VWS V14.00,2013-08-16 09:00:00,
2013-08-16 05:01:00,54.3,54.0,30.08,NNW,338,2.0,3.0,99,0.00,,BKN055,0.00,VWS V14.00,2013-08-16 09:01:00,
2013-08-16 05:10:00,54.4,54.1,30.08,NNW,338,0.0,3.0,99,0.00,,BKN055,0.00,VWS V14.00,2013-08-16 09:10:00,
2013-08-16 05:11:00,54.4,54.1,30.08,NNW,338,0.0,3.0,99,0.00,,BKN055,0.00,VWS V14.00,2013-08-16 09:11:00,
2013-08-16 05:20:00,54.4,54.1,30.08,NNW,339,0.0,4.0,99,0.00,,BKN055,0.00,VWS V14.00,2013-08-16 09:20:00,
2013-08-16 05:21:00,54.4,54.1,30.08,NNW,339,0.0,4.0,99,0.00,,BKN055,0.00,VWS V14.00,2013-08-16 09:21:00,
2013-08-16 05:30:00,54.0,53.5,30.07,North,350,0.0,3.0,98,0.00,,BKN055,0.00,VWS V14.00,2013-08-16 09:30:00,
2013-08-16 05:31:00,54.0,53.5,30.07,North,350,0.0,3.0,98,0.00,,BKN055,0.00,VWS V14.00,2013-08-16 09:31:00,
2013-08-16 05:40:00,53.6,53.0,30.07,North,351,0.0,0.0,98,0.00,,BKN055,0.00,VWS V14.00,2013-08-16 09:40:00,
2013-08-16 05:41:00,53.6,53.0,30.07,North,351,0.0,0.0,98,0.00,,BKN055,0.00,VWS V14.00,2013-08-16 09:41:00,
2013-08-16 05:50:00,53.4,52.8,30.07,North,350,0.0,2.0,98,0.00,,BKN055,0.00,VWS V14.00,2013-08-16 09:50:00,
2013-08-16 05:51:00,53.4,52.8,30.07,North,350,0.0,2.0,98,0.00,,BKN055,0.00,VWS V14.00,2013-08-16 09:51:00,
2013-08-16 06:00:00,53.4,52.8,30.08,North,351,0.0,3.0,98,0.00,,BKN055,0.00,VWS V14.00,2013-08-16 10:00:00,
2013-08-16 06:01:00,53.4,52.8,30.08,North,351,0.0,3.0,98,0.00,,BKN055,0.00,VWS V14.00,2013-08-16 10:01:00,
2013-08-16 06:10:00,53.3,53.0,30.08,North,351,0.0,0.0,99,0.00,,BKN055,0.00,VWS V14.00,2013-08-16 10:10:00,
2013-08-16 06:11:00,53.3,53.0,30.08,North,351,0.0,0.0,99,0.00,,BKN055,0.00,VWS V14.00,2013-08-16 10:11:00,
2013-08-16 06:20:00,53.5,53.2,30.09,North,351,0.0,2.0,99,0.00,,BKN055,0.00,VWS V14.00,2013-08-16 10:20:00,
2013-08-16 06:21:00,53.5,53.2,30.09,North,351,0.0,2.0,99,0.00,,BKN055,0.00,VWS V14.00,2013-08-16 10:21:00,
2013-08-16 06:30:00,53.2,52.9,30.09,NNW,330,2.0,4.0,99,0.00,,BKN055,0.00,VWS V14.00,2013-08-16 10:30:00,
2013-08-16 06:31:00,53.2,52.9,30.09,NNW,330,2.0,4.0,99,0.00,,BKN055,0.00,VWS V14.00,2013-08-16 10:31:00,
2013-08-16 06:40:00,53.2,52.9,30.09,NNW,332,0.0,4.0,99,0.00,,BKN055,0.00,VWS V14.00,2013-08-16 10:40:00,
2013-08-16 06:41:00,53.2,52.9,30.09,NNW,332,0.0,4.0,99,0.00,,BKN055,0.00,VWS V14.00,2013-08-16 10:41:00,
2013-08-16 06:50:00,53.0,52.5,30.09,NNW,332,0.0,0.0,98,0.00,,BKN055,0.00,VWS V14.00,2013-08-16 10:50:00,
2013-08-16 06:51:00,53.0,52.5,30.09,NNW,332,0.0,0.0,98,0.00,,BKN055,0.00,VWS V14.00,2013-08-16 10:51:00,
2013-08-16 07:00:00,52.9,52.6,30.09,NNW,331,0.0,0.0,99,0.00,,BKN055,0.00,VWS V14.00,2013-08-16 11:00:00,
2013-08-16 07:01:00,52.9,52.6,30.09,NNW,331,0.0,0.0,99,0.00,,BKN055,0.00,VWS V14.00,2013-08-16 11:01:00,
2013-08-16 07:10:00,52.9,52.6,30.09,NNW,335,2.0,4.0,99,0.00,,BKN055,0.00,VWS V14.00,2013-08-16 11:10:00,
2013-08-16 07:11:00,52.9,52.6,30.09,NNW,335,2.0,4.0,99,0.00,,BKN055,0.00,VWS V14.00,2013-08-16 11:11:00,
2013-08-16 07:20:00,52.7,52.4,30.09,NNW,333,0.0,2.0,99,0.00,,BKN055,0.00,VWS V14.00,2013-08-16 11:20:00,
2013-08-16 07:21:00,52.7,52.4,30.09,NNW,333,0.0,2.0,99,0.00,,BKN055,0.00,VWS V14.00,2013-08-16 11:21:00,
2013-08-16 07:30:00,52.7,52.4,30.10,NNW,333,0.0,3.0,99,0.00,,BKN055,0.00,VWS V14.00,2013-08-16 11:30:00,
2013-08-16 07:31:00,52.7,52.4,30.10,NNW,333,0.0,3.0,99,0.00,,BKN055,0.00,VWS V14.00,2013-08-16 11:31:00,
2013-08-16 07:40:00,53.0,52.7,30.10,NNW,333,1.0,3.0,99,0.00,,BKN055,0.00,VWS V14.00,2013-08-16 11:40:00,
2013-08-16 07:41:00,53.0,52.7,30.10,NNW,333,1.0,3.0,99,0.00,,BKN055,0.00,VWS V14.00,2013-08-16 11:41:00,
2013-08-16 07:50:00,53.0,52.7,30.10,NNW,333,0.0,4.0,99,0.00,,BKN055,0.00,VWS V14.00,2013-08-16 11:50:00,
2013-08-16 07:51:00,53.0,52.7,30.10,NNW,333,0.0,4.0,99,0.00,,BKN055,0.00,VWS V14.00,2013-08-16 11:51:00,
2013-08-16 08:00:00,53.2,52.9,30.10,NNW,338,3.0,3.0,99,0.00,,BKN055,0.00,VWS V14.00,2013-08-16 12:00:00,
2013-08-16 08:01:00,53.2,52.9,30.10,NNW,338,3.0,3.0,99,0.00,,BKN055,0.00,VWS V14.00,2013-08-16 12:01:00,
2013-08-16 08:10:00,53.7,53.4,30.11,NNW,342,0.0,3.0,99,0.00,,BKN055,0.00,VWS V14.00,2013-08-16 12:10:00,
2013-08-16 08:11:00,53.7,53.4,30.11,NNW,342,0.0,3.0,99,0.00,,BKN055,0.00,VWS V14.00,2013-08-16 12:11:00,
2013-08-16 08:20:00,54.0,53.7,30.11,NNW,345,0.0,3.0,99,0.00,,BKN055,0.00,VWS V14.00,2013-08-16 12:20:00,
2013-08-16 08:21:00,54.0,53.7,30.11,NNW,345,0.0,3.0,99,0.00,,BKN055,0.00,VWS V14.00,2013-08-16 12:21:00,
2013-08-16 08:30:00,54.8,54.5,30.11,North,5,2.0,4.0,99,0.00,,BKN055,0.00,VWS V14.00,2013-08-16 12:30:00,
2013-08-16 08:31:00,54.8,54.5,30.11,North,5,2.0,4.0,99,0.00,,BKN055,0.00,VWS V14.00,2013-08-16 12:31:00,
2013-08-16 08:40:00,56.0,56.0,30.11,NNW,342,3.0,4.0,100,0.01,,BKN055,0.01,VWS V14.00,2013-08-16 12:40:00,
2013-08-16 08:41:00,56.0,56.0,30.11,NNW,342,3.0,4.0,100,0.01,,BKN055,0.01,VWS V14.00,2013-08-16 12:41:00,
2013-08-16 08:50:00,57.0,57.0,30.11,NNW,337,3.0,4.0,100,0.01,,BKN055,0.01,VWS V14.00,2013-08-16 12:50:00,
2013-08-16 08:51:00,57.0,57.0,30.11,NNW,337,3.0,4.0,100,0.01,,BKN055,0.01,VWS V14.00,2013-08-16 12:51:00,
2013-08-16 09:00:00,57.9,57.6,30.11,North,350,2.0,5.0,99,0.01,,BKN055,0.01,VWS V14.00,2013-08-16 13:00:00,
2013-08-16 09:01:00,57.9,57.6,30.11,North,350,2.0,5.0,99,0.01,,BKN055,0.01,VWS V14.00,2013-08-16 13:01:00,
2013-08-16 09:10:00,58.8,58.2,30.11,NNW,339,1.0,5.0,98,0.01,,BKN055,0.01,VWS V14.00,2013-08-16 13:10:00,
2013-08-16 09:11:00,58.8,58.2,30.11,NNW,339,1.0,5.0,98,0.01,,BKN055,0.01,VWS V14.00,2013-08-16 13:11:00,
2013-08-16 09:20:00,59.9,59.0,30.11,NNW,327,0.0,5.0,97,0.01,,BKN055,0.01,VWS V14.00,2013-08-16 13:20:00,
2013-08-16 09:21:00,59.9,59.0,30.11,NNW,327,0.0,5.0,97,0.01,,BKN055,0.01,VWS V14.00,2013-08-16 13:21:00,
2013-08-16 09:30:00,60.9,59.8,30.11,NNW,338,2.0,4.0,96,0.01,,BKN055,0.01,VWS V14.00,2013-08-16 13:30:00,
2013-08-16 09:31:00,60.9,59.8,30.11,NNW,338,2.0,4.0,96,0.01,,BKN055,0.01,VWS V14.00,2013-08-16 13:31:00,
2013-08-16 09:40:00,62.1,60.4,30.12,ENE,78,0.0,4.0,94,0.01,,BKN055,0.01,VWS V14.00,2013-08-16 13:40:00,
2013-08-16 09:41:00,62.1,60.4,30.12,ENE,78,0.0,4.0,94,0.01,,BKN055,0.01,VWS V14.00,2013-08-16 13:41:00,
2013-08-16 09:50:00,63.1,60.7,30.12,North,10,0.0,1.0,92,0.00,,BKN055,0.01,VWS V14.00,2013-08-16 13:50:00,
2013-08-16 09:51:00,63.1,60.7,30.12,North,10,0.0,1.0,92,0.00,,BKN055,0.01,VWS V14.00,2013-08-16 13:51:00,
2013-08-16 10:00:00,64.5,62.4,30.11,WNW,298,0.0,1.0,93,0.00,,BKN055,0.01,VWS V14.00,2013-08-16 14:00:00,
2013-08-16 10:01:00,64.5,62.4,30.11,WNW,298,0.0,1.0,93,0.00,,BKN055,0.01,VWS V14.00,2013-08-16 14:01:00,
2013-08-16 10:10:00,66.2,62.2,30.11,NE,49,0.0,3.0,87,0.00,,BKN055,0.01,VWS V14.00,2013-08-16 14:10:00,
2013-08-16 10:11:00,66.2,62.2,30.11,NE,49,0.0,3.0,87,0.00,,BKN055,0.01,VWS V14.00,2013-08-16 14:11:00,
2013-08-16 10:20:00,67.4,62.4,30.12,ENE,75,0.0,4.0,84,0.00,,BKN055,0.01,VWS V14.00,2013-08-16 14:20:00,
2013-08-16 10:21:00,67.4,62.4,30.12,ENE,75,0.0,4.0,84,0.00,,BKN055,0.01,VWS V14.00,2013-08-16 14:21:00,
2013-08-16 10:30:00,68.2,62.8,30.12,North,11,0.0,4.0,83,0.00,,BKN055,0.01,VWS V14.00,2013-08-16 14:30:00,
2013-08-16 10:31:00,68.2,62.8,30.12,North,11,0.0,4.0,83,0.00,,BKN055,0.01,VWS V14.00,2013-08-16 14:31:00,
2013-08-16 10:40:00,69.1,62.3,30.11,East,85,0.0,5.0,79,0.00,,BKN055,0.01,VWS V14.00,2013-08-16 14:40:00,
2013-08-16 10:41:00,69.1,62.3,30.11,East,85,0.0,5.0,79,0.00,,BKN055,0.01,VWS V14.00,2013-08-16 14:41:00,
2013-08-16 10:50:00,69.6,62.4,30.11,ENE,68,0.0,6.0,78,0.00,,BKN055,0.01,VWS V14.00,2013-08-16 14:50:00,
2013-08-16 10:51:00,69.6,62.4,30.11,ENE,68,0.0,6.0,78,0.00,,BKN055,0.01,VWS V14.00,2013-08-16 14:51:00,
2013-08-16 11:00:00,70.3,62.4,30.11,East,85,0.0,5.0,76,0.00,,BKN055,0.01,VWS V14.00,2013-08-16 15:00:00,
2013-08-16 11:01:00,70.3,62.4,30.11,East,85,0.0,5.0,76,0.00,,BKN055,0.01,VWS V14.00,2013-08-16 15:01:00,
2013-08-16 11:10:00,71.2,63.3,30.11,ENE,64,0.0,9.0,76,0.00,,BKN055,0.01,VWS V14.00,2013-08-16 15:10:00,
2013-08-16 11:11:00,71.2,63.3,30.11,ENE,64,0.0,9.0,76,0.00,,BKN055,0.01,VWS V14.00,2013-08-16 15:11:00,
2013-08-16 11:20:00,71.7,63.0,30.11,NE,55,5.0,5.0,74,0.00,,BKN055,0.01,VWS V14.00,2013-08-16 15:20:00,
2013-08-16 11:21:00,71.7,63.0,30.11,NE,55,5.0,5.0,74,0.00,,BKN055,0.01,VWS V14.00,2013-08-16 15:21:00,
2013-08-16 11:30:00,72.1,61.4,30.11,ENE,75,0.0,7.0,69,0.00,,BKN055,0.01,VWS V14.00,2013-08-16 15:30:00,
2013-08-16 11:31:00,72.1,61.4,30.11,ENE,75,0.0,7.0,69,0.00,,BKN055,0.01,VWS V14.00,2013-08-16 15:31:00,
2013-08-16 11:40:00,73.0,61.8,30.11,ENE,63,5.0,7.0,68,0.00,,BKN055,0.01,VWS V14.00,2013-08-16 15:40:00,
2013-08-16 11:41:00,73.0,61.8,30.11,ENE,63,5.0,7.0,68,0.00,,BKN055,0.01,VWS V14.00,2013-08-16 15:41:00,
2013-08-16 11:50:00,73.4,63.0,30.10,ENE,74,0.0,9.0,70,0.00,,BKN055,0.01,VWS V14.00,2013-08-16 15:50:00,
2013-08-16 11:51:00,73.4,63.0,30.10,ENE,74,0.0,9.0,70,0.00,,BKN055,0.01,VWS V14.00,2013-08-16 15:51:00,
2013-08-16 12:00:00,73.9,63.9,30.10,East,83,7.0,10.0,71,0.00,,BKN055,0.01,VWS V14.00,2013-08-16 16:00:00,
2013-08-16 12:01:00,73.9,63.9,30.10,East,83,7.0,10.0,71,0.00,,BKN055,0.01,VWS V14.00,2013-08-16 16:01:00,
2013-08-16 12:10:00,73.7,61.2,30.10,NE,54,0.0,8.0,65,0.00,,BKN055,0.01,VWS V14.00,2013-08-16 16:10:00,
2013-08-16 12:11:00,73.7,61.2,30.10,NE,54,0.0,8.0,65,0.00,,BKN055,0.01,VWS V14.00,2013-08-16 16:11:00,
2013-08-16 12:20:00,74.1,63.3,30.10,ENE,75,2.0,6.0,69,0.00,,BKN055,0.01,VWS V14.00,2013-08-16 16:20:00,
2013-08-16 12:21:00,74.1,63.3,30.10,ENE,75,2.0,6.0,69,0.00,,BKN055,0.01,VWS V14.00,2013-08-16 16:21:00,
2013-08-16 12:30:00,74.3,62.6,30.10,ENE,69,3.0,7.0,67,0.00,,BKN055,0.01,VWS V14.00,2013-08-16 16:30:00,
2013-08-16 12:31:00,74.3,62.6,30.10,ENE,69,3.0,7.0,67,0.00,,BKN055,0.01,VWS V14.00,2013-08-16 16:31:00,
2013-08-16 12:40:00,74.6,62.1,30.10,East,82,0.0,5.0,65,0.00,,BKN055,0.01,VWS V14.00,2013-08-16 16:40:00,
2013-08-16 12:41:00,74.6,62.1,30.10,East,82,0.0,5.0,65,0.00,,BKN055,0.01,VWS V14.00,2013-08-16 16:41:00,
2013-08-16 12:50:00,75.1,62.5,30.10,ENE,75,3.0,7.0,65,0.00,,BKN055,0.01,VWS V14.00,2013-08-16 16:50:00,
2013-08-16 12:51:00,75.1,62.5,30.10,ENE,75,3.0,7.0,65,0.00,,BKN055,0.01,VWS V14.00,2013-08-16 16:51:00,
2013-08-16 13:00:00,75.2,63.1,30.10,ENE,78,0.0,7.0,66,0.00,,BKN055,0.01,VWS V14.00,2013-08-16 17:00:00,
2013-08-16 13:01:00,75.2,63.1,30.10,ENE,78,0.0,7.0,66,0.00,,BKN055,0.01,VWS V14.00,2013-08-16 17:01:00,
2013-08-16 13:10:00,75.7,63.5,30.10,East,86,0.0,6.0,66,0.00,,BKN055,0.01,VWS V14.00,2013-08-16 17:10:00,
2013-08-16 13:11:00,75.7,63.5,30.10,East,86,0.0,6.0,66,0.00,,BKN055,0.01,VWS V14.00,2013-08-16 17:11:00,
2013-08-16 13:20:00,76.1,63.0,30.10,NE,52,2.0,7.0,64,0.00,,BKN055,0.01,VWS V14.00,2013-08-16 17:20:00,
2013-08-16 13:21:00,76.1,63.0,30.10,NE,52,2.0,7.0,64,0.00,,BKN055,0.01,VWS V14.00,2013-08-16 17:21:00,
2013-08-16 13:30:00,76.4,63.8,30.10,NE,53,0.0,6.0,65,0.00,,BKN055,0.01,VWS V14.00,2013-08-16 17:30:00,
2013-08-16 13:31:00,76.4,63.8,30.10,NE,53,0.0,6.0,65,0.00,,BKN055,0.01,VWS V14.00,2013-08-16 17:31:00,
2013-08-16 13:40:00,76.4,60.5,30.09,NE,44,0.0,7.0,58,0.00,,BKN055,0.01,VWS V14.00,2013-08-16 17:40:00,
2013-08-16 13:41:00,76.4,60.5,30.09,NE,44,0.0,7.0,58,0.00,,BKN055,0.01,VWS V14.00,2013-08-16 17:41:00,
2013-08-16 13:50:00,76.9,63.8,30.09,East,97,0.0,6.0,64,0.00,,BKN055,0.01,VWS V14.00,2013-08-16 17:50:00,
2013-08-16 13:51:00,76.9,63.8,30.09,East,97,0.0,6.0,64,0.00,,BKN055,0.01,VWS V14.00,2013-08-16 17:51:00,
2013-08-16 14:00:00,77.3,62.8,30.09,East,100,0.0,6.0,61,0.00,,BKN055,0.01,VWS V14.00,2013-08-16 18:00:00,
2013-08-16 14:01:00,77.3,62.8,30.09,East,100,0.0,6.0,61,0.00,,BKN055,0.01,VWS V14.00,2013-08-16 18:01:00,
2013-08-16 14:10:00,77.5,62.5,30.09,South,178,0.0,6.0,60,0.00,,BKN055,0.01,VWS V14.00,2013-08-16 18:10:00,
2013-08-16 14:11:00,77.5,62.5,30.09,South,178,0.0,6.0,60,0.00,,BKN055,0.01,VWS V14.00,2013-08-16 18:11:00,
2013-08-16 14:20:00,78.2,63.7,30.09,ENE,65,0.0,5.0,61,0.00,,BKN055,0.01,VWS V14.00,2013-08-16 18:20:00,
2013-08-16 14:21:00,78.2,63.7,30.09,ENE,65,0.0,5.0,61,0.00,,BKN055,0.01,VWS V14.00,2013-08-16 18:21:00,
2013-08-16 14:30:00,78.4,62.9,30.08,North,360,0.0,5.0,59,0.00,,BKN055,0.01,VWS V14.00,2013-08-16 18:30:00,
2013-08-16 14:31:00,78.4,62.9,30.08,North,360,0.0,5.0,59,0.00,,BKN055,0.01,VWS V14.00,2013-08-16 18:31:00,
2013-08-16 14:40:00,78.0,61.5,30.08,ENE,67,6.0,10.0,57,0.00,,BKN055,0.01,VWS V14.00,2013-08-16 18:40:00,
2013-08-16 14:41:00,78.0,61.5,30.08,ENE,67,6.0,10.0,57,0.00,,BKN055,0.01,VWS V14.00,2013-08-16 18:41:00,
2013-08-16 14:50:00,77.5,61.6,30.08,ESE,117,0.0,7.0,58,0.00,,BKN055,0.01,VWS V14.00,2013-08-16 18:50:00,
2013-08-16 14:51:00,77.5,61.6,30.08,ESE,117,0.0,7.0,58,0.00,,BKN055,0.01,VWS V14.00,2013-08-16 18:51:00,
2013-08-16 15:00:00,77.6,60.7,30.08,ESE,103,0.0,5.0,56,0.00,,BKN055,0.01,VWS V14.00,2013-08-16 19:00:00,
2013-08-16 15:01:00,77.6,60.7,30.08,ESE,103,0.0,5.0,56,0.00,,BKN055,0.01,VWS V14.00,2013-08-16 19:01:00,
2013-08-16 15:10:00,77.7,64.1,30.08,ENE,71,0.0,7.0,63,0.00,,BKN055,0.01,VWS V14.00,2013-08-16 19:10:00,
2013-08-16 15:11:00,77.7,64.1,30.08,ENE,71,0.0,7.0,63,0.00,,BKN055,0.01,VWS V14.00,2013-08-16 19:11:00,
2013-08-16 15:20:00,78.0,63.0,30.08,ENE,69,0.0,4.0,60,0.00,,BKN055,0.01,VWS V14.00,2013-08-16 19:20:00,
2013-08-16 15:21:00,78.0,63.0,30.08,ENE,69,0.0,4.0,60,0.00,,BKN055,0.01,VWS V14.00,2013-08-16 19:21:00,
2013-08-16 15:30:00,77.9,61.0,30.08,NE,52,0.0,7.0,56,0.00,,BKN055,0.01,VWS V14.00,2013-08-16 19:30:00,
2013-08-16 15:31:00,77.9,61.0,30.08,NE,52,0.0,7.0,56,0.00,,BKN055,0.01,VWS V14.00,2013-08-16 19:31:00,
2013-08-16 15:40:00,78.1,61.6,30.07,ENE,69,0.0,5.0,57,0.00,,BKN055,0.01,VWS V14.00,2013-08-16 19:40:00,
2013-08-16 15:41:00,78.1,61.6,30.07,ENE,69,0.0,5.0,57,0.00,,BKN055,0.01,VWS V14.00,2013-08-16 19:41:00,
2013-08-16 15:50:00,78.5,61.5,30.07,ENE,70,0.0,4.0,56,0.00,,BKN055,0.01,VWS V14.00,2013-08-16 19:50:00,
2013-08-16 15:51:00,78.5,61.5,30.07,ENE,70,0.0,4.0,56,0.00,,BKN055,0.01,VWS V14.00,2013-08-16 19:51:00,
2013-08-16 16:00:00,78.4,61.9,30.07,NE,36,3.0,7.0,57,0.00,,BKN055,0.01,VWS V14.00,2013-08-16 20:00:00,
2013-08-16 16:01:00,78.4,61.9,30.07,NE,36,3.0,7.0,57,0.00,,BKN055,0.01,VWS V14.00,2013-08-16 20:01:00,
2013-08-16 16:10:00,78.7,62.2,30.07,ENE,60,0.0,5.0,57,0.00,,BKN055,0.01,VWS V14.00,2013-08-16 20:10:00,
2013-08-16 16:11:00,78.7,62.2,30.07,ENE,60,0.0,5.0,57,0.00,,BKN055,0.01,VWS V14.00,2013-08-16 20:11:00,
2013-08-16 16:20:00,78.5,63.5,30.06,ESE,122,0.0,5.0,60,0.00,,BKN055,0.01,VWS V14.00,2013-08-16 20:20:00,
2013-08-16 16:21:00,78.5,63.5,30.06,ESE,122,0.0,5.0,60,0.00,,BKN055,0.01,VWS V14.00,2013-08-16 20:21:00,
2013-08-16 16:30:00,78.7,64.6,30.06,North,5,6.0,6.0,62,0.00,,BKN055,0.01,VWS V14.00,2013-08-16 20:30:00,
2013-08-16 16:31:00,78.7,64.6,30.06,North,5,6.0,6.0,62,0.00,,BKN055,0.01,VWS V14.00,2013-08-16 20:31:00,
2013-08-16 16:40:00,78.7,60.2,30.06,ENE,68,0.0,10.0,53,0.00,,BKN055,0.01,VWS V14.00,2013-08-16 20:40:00,
2013-08-16 16:41:00,78.7,60.2,30.06,ENE,68,0.0,10.0,53,0.00,,BKN055,0.01,VWS V14.00,2013-08-16 20:41:00,
2013-08-16 16:50:00,78.7,63.7,30.06,NE,50,0.0,5.0,60,0.00,,BKN055,0.01,VWS V14.00,2013-08-16 20:50:00,
2013-08-16 16:51:00,78.7,63.7,30.06,NE,50,0.0,5.0,60,0.00,,BKN055,0.01,VWS V14.00,2013-08-16 20:51:00,
2013-08-16 17:00:00,78.1,61.6,30.06,East,79,0.0,6.0,57,0.00,,BKN055,0.01,VWS V14.00,2013-08-16 21:00:00,
2013-08-16 17:01:00,78.1,61.6,30.06,East,79,0.0,6.0,57,0.00,,BKN055,0.01,VWS V14.00,2013-08-16 21:01:00,
2013-08-16 17:10:00,78.0,62.0,30.06,NE,55,0.0,6.0,58,0.00,,BKN055,0.01,VWS V14.00,2013-08-16 21:10:00,
2013-08-16 17:11:00,78.0,62.0,30.06,NE,55,0.0,6.0,58,0.00,,BKN055,0.01,VWS V14.00,2013-08-16 21:11:00,
2013-08-16 17:20:00,78.3,59.8,30.07,ENE,67,0.0,5.0,53,0.00,,BKN055,0.01,VWS V14.00,2013-08-16 21:20:00,
2013-08-16 17:21:00,78.3,59.8,30.07,ENE,67,0.0,5.0,53,0.00,,BKN055,0.01,VWS V14.00,2013-08-16 21:21:00,
2013-08-16 17:30:00,78.3,62.3,30.07,ENE,74,0.0,5.0,58,0.00,,BKN055,0.01,VWS V14.00,2013-08-16 21:30:00,
2013-08-16 17:31:00,78.3,62.3,30.07,ENE,74,0.0,5.0,58,0.00,,BKN055,0.01,VWS V14.00,2013-08-16 21:31:00,
2013-08-16 17:40:00,78.3,61.3,30.07,East,79,2.0,5.0,56,0.00,,BKN055,0.01,VWS V14.00,2013-08-16 21:40:00,
2013-08-16 17:41:00,78.3,61.3,30.07,East,79,2.0,5.0,56,0.00,,BKN055,0.01,VWS V14.00,2013-08-16 21:41:00,
2013-08-16 17:50:00,78.3,62.8,30.07,ENE,65,0.0,5.0,59,0.00,,BKN055,0.01,VWS V14.00,2013-08-16 21:50:00,
2013-08-16 17:51:00,78.3,62.8,30.07,ENE,65,0.0,5.0,59,0.00,,BKN055,0.01,VWS V14.00,2013-08-16 21:51:00,
2013-08-16 18:00:00,78.1,61.6,30.07,ENE,59,3.0,4.0,57,0.00,,BKN055,0.01,VWS V14.00,2013-08-16 22:00:00,
2013-08-16 18:01:00,78.1,61.6,30.07,ENE,59,3.0,4.0,57,0.00,,BKN055,0.01,VWS V14.00,2013-08-16 22:01:00,
2013-08-16 18:10:00,78.0,61.0,30.06,North,355,0.0,5.0,56,0.00,,BKN055,0.01,VWS V14.00,2013-08-16 22:10:00,
2013-08-16 18:11:00,78.0,61.0,30.06,North,355,0.0,5.0,56,0.00,,BKN055,0.01,VWS V14.00,2013-08-16 22:11:00,
2013-08-16 18:20:00,78.1,62.1,30.07,West,265,0.0,3.0,58,0.00,,BKN055,0.01,VWS V14.00,2013-08-16 22:20:00,
2013-08-16 18:21:00,78.1,62.1,30.07,West,265,0.0,3.0,58,0.00,,BKN055,0.01,VWS V14.00,2013-08-16 22:21:00,
2013-08-16 18:30:00,77.9,62.0,30.06,NNE,15,0.0,4.0,58,0.00,,BKN055,0.01,VWS V14.00,2013-08-16 22:30:00,
2013-08-16 18:31:00,77.9,62.0,30.06,NNE,15,0.0,4.0,58,0.00,,BKN055,0.01,VWS V14.00,2013-08-16 22:31:00,
2013-08-16 18:40:00,76.9,62.4,30.06,ESE,116,0.0,4.0,61,0.00,,BKN055,0.01,VWS V14.00,2013-08-16 22:40:00,
2013-08-16 18:41:00,76.9,62.4,30.06,ESE,116,0.0,4.0,61,0.00,,BKN055,0.01,VWS V14.00,2013-08-16 22:41:00,
2013-08-16 18:50:00,76.9,63.8,30.06,ESE,115,0.0,0.0,64,0.00,,BKN055,0.01,VWS V14.00,2013-08-16 22:50:00,
2013-08-16 18:51:00,76.9,63.8,30.06,ESE,115,0.0,0.0,64,0.00,,BKN055,0.01,VWS V14.00,2013-08-16 22:51:00,
2013-08-16 19:00:00,76.7,62.7,30.06,WSW,247,0.0,2.0,62,0.00,,BKN055,0.01,VWS V14.00,2013-08-16 23:00:00,
2013-08-16 19:01:00,76.7,62.7,30.06,WSW,247,0.0,2.0,62,0.00,,BKN055,0.01,VWS V14.00,2013-08-16 23:01:00,
2013-08-16 19:10:00,76.2,63.2,30.06,SE,146,0.0,0.0,64,0.00,,BKN055,0.01,VWS V14.00,2013-08-16 23:10:00,
2013-08-16 19:11:00,76.2,63.1,30.06,SE,146,0.0,0.0,64,0.00,,BKN055,0.01,VWS V14.00,2013-08-16 23:11:00,
2013-08-16 19:20:00,76.3,64.6,30.06,NW,316,0.0,1.0,67,0.00,,BKN055,0.01,VWS V14.00,2013-08-16 23:20:00,
2013-08-16 19:21:00,76.3,64.6,30.06,NW,316,0.0,1.0,67,0.00,,BKN055,0.01,VWS V14.00,2013-08-16 23:21:00,
2013-08-16 19:30:00,76.2,65.3,30.07,South,180,0.0,0.0,69,0.00,,BKN055,0.01,VWS V14.00,2013-08-16 23:30:00,
2013-08-16 19:31:00,76.2,65.3,30.07,South,180,0.0,0.0,69,0.00,,BKN055,0.01,VWS V14.00,2013-08-16 23:31:00,
2013-08-16 19:40:00,75.4,65.3,30.07,South,180,0.0,0.0,71,0.00,,BKN055,0.01,VWS V14.00,2013-08-16 23:40:00,
2013-08-16 19:41:00,75.4,65.3,30.07,South,180,0.0,0.0,71,0.00,,BKN055,0.01,VWS V14.00,2013-08-16 23:41:00,
2013-08-16 19:50:00,73.8,65.4,30.07,South,180,0.0,0.0,75,0.00,,BKN055,0.01,VWS V14.00,2013-08-16 23:50:00,
2013-08-16 19:51:00,73.8,65.4,30.07,South,180,0.0,0.0,75,0.00,,BKN055,0.01,VWS V14.00,2013-08-16 23:51:00,
2013-08-16 20:00:00,72.2,65.0,30.07,South,180,0.0,0.0,78,0.00,,BKN055,0.01,VWS V14.00,2013-08-17 00:00:00,
2013-08-16 20:01:00,72.2,65.0,30.07,South,180,0.0,0.0,78,0.00,,BKN055,0.01,VWS V14.00,2013-08-17 00:01:00,
2013-08-16 20:10:00,70.7,64.6,30.08,SSW,198,0.0,0.0,81,0.00,,BKN055,0.01,VWS V14.00,2013-08-17 00:10:00,
2013-08-16 20:11:00,70.7,64.6,30.08,SSW,198,0.0,0.0,81,0.00,,BKN055,0.01,VWS V14.00,2013-08-17 00:11:00,
2013-08-16 20:20:00,69.4,64.7,30.08,WSW,251,0.0,2.0,85,0.00,,BKN055,0.01,VWS V14.00,2013-08-17 00:20:00,
2013-08-16 20:21:00,69.4,64.7,30.08,WSW,251,0.0,2.0,85,0.00,,BKN055,0.01,VWS V14.00,2013-08-17 00:21:00,
2013-08-16 20:30:00,68.4,64.4,30.07,NW,319,0.0,2.0,87,0.00,,BKN055,0.01,VWS V14.00,2013-08-17 00:30:00,
2013-08-16 20:31:00,68.4,64.4,30.07,NW,319,0.0,2.0,87,0.00,,BKN055,0.01,VWS V14.00,2013-08-17 00:31:00,
2013-08-16 20:40:00,67.9,63.9,30.08,NW,320,0.0,1.0,87,0.00,,BKN055,0.01,VWS V14.00,2013-08-17 00:40:00,
2013-08-16 20:41:00,67.9,63.9,30.08,NW,320,0.0,1.0,87,0.00,,BKN055,0.01,VWS V14.00,2013-08-17 00:41:00,
2013-08-16 20:50:00,67.5,63.8,30.08,NW,305,0.0,1.0,88,0.00,,BKN055,0.01,VWS V14.00,2013-08-17 00:50:00,
2013-08-16 20:51:00,67.5,63.8,30.08,NW,305,0.0,1.0,88,0.00,,BKN055,0.01,VWS V14.00,2013-08-17 00:51:00,
2013-08-16 21:00:00,67.0,63.7,30.08,NW,325,0.0,4.0,89,0.00,,BKN055,0.01,VWS V14.00,2013-08-17 01:00:00,
2013-08-16 21:01:00,67.0,63.7,30.08,NW,325,0.0,4.0,89,0.00,,BKN055,0.01,VWS V14.00,2013-08-17 01:01:00,
2013-08-16 21:10:00,66.7,63.7,30.08,NNW,327,0.0,2.0,90,0.00,,BKN055,0.01,VWS V14.00,2013-08-17 01:10:00,
2013-08-16 21:11:00,66.7,63.7,30.08,NNW,327,0.0,2.0,90,0.00,,BKN055,0.01,VWS V14.00,2013-08-17 01:11:00,
2013-08-16 21:20:00,66.2,63.2,30.08,NNW,327,0.0,0.0,90,0.00,,BKN055,0.01,VWS V14.00,2013-08-17 01:20:00,
2013-08-16 21:21:00,66.2,63.2,30.08,NNW,327,0.0,0.0,90,0.00,,BKN055,0.01,VWS V14.00,2013-08-17 01:21:00,
2013-08-16 21:30:00,65.6,62.9,30.08,NNW,330,0.0,1.0,91,0.00,,BKN055,0.01,VWS V14.00,2013-08-17 01:30:00,
2013-08-16 21:31:00,65.6,62.9,30.08,NNW,330,0.0,1.0,91,0.00,,BKN055,0.01,VWS V14.00,2013-08-17 01:31:00,
2013-08-16 21:40:00,65.2,62.8,30.09,NNW,333,3.0,4.0,92,0.00,,BKN055,0.01,VWS V14.00,2013-08-17 01:40:00,
2013-08-16 21:41:00,65.2,62.8,30.09,NNW,333,3.0,4.0,92,0.00,,BKN055,0.01,VWS V14.00,2013-08-17 01:41:00,
2013-08-16 21:50:00,64.8,62.7,30.09,NNW,329,3.0,5.0,93,0.00,,BKN055,0.01,VWS V14.00,2013-08-17 01:50:00,
2013-08-16 21:51:00,64.8,62.7,30.09,NNW,329,3.0,5.0,93,0.00,,BKN055,0.01,VWS V14.00,2013-08-17 01:51:00,
2013-08-16 22:00:00,64.4,62.3,30.10,NNW,337,0.0,4.0,93,0.00,,BKN055,0.01,VWS V14.00,2013-08-17 02:00:00,
2013-08-16 22:01:00,64.4,62.3,30.10,NNW,337,0.0,4.0,93,0.00,,BKN055,0.01,VWS V14.00,2013-08-17 02:01:00,
2013-08-16 22:10:00,64.2,62.1,30.10,NNW,337,0.0,1.0,93,0.00,,BKN055,0.01,VWS V14.00,2013-08-17 02:10:00,
2013-08-16 22:11:00,64.2,62.1,30.10,NNW,337,0.0,1.0,93,0.00,,BKN055,0.01,VWS V14.00,2013-08-17 02:11:00,
2013-08-16 22:20:00,63.9,61.8,30.10,NNW,338,0.0,3.0,93,0.00,,BKN055,0.01,VWS V14.00,2013-08-17 02:20:00,
2013-08-16 22:21:00,63.9,61.8,30.10,NNW,338,0.0,3.0,93,0.00,,BKN055,0.01,VWS V14.00,2013-08-17 02:21:00,
2013-08-16 22:30:00,63.5,61.4,30.11,NNW,338,0.0,3.0,93,0.00,,BKN055,0.01,VWS V14.00,2013-08-17 02:30:00,
2013-08-16 22:31:00,63.5,61.4,30.11,NNW,338,0.0,3.0,93,0.00,,BKN055,0.01,VWS V14.00,2013-08-17 02:31:00,
2013-08-16 22:40:00,63.2,61.5,30.11,NNW,337,0.0,0.0,94,0.00,,BKN055,0.01,VWS V14.00,2013-08-17 02:40:00,
2013-08-16 22:41:00,63.2,61.5,30.11,NNW,337,0.0,0.0,94,0.00,,BKN055,0.01,VWS V14.00,2013-08-17 02:41:00,
2013-08-16 22:50:00,62.9,61.2,30.11,NNW,338,0.0,3.0,94,0.00,,BKN055,0.01,VWS V14.00,2013-08-17 02:50:00,
2013-08-16 22:51:00,62.9,61.2,30.11,NNW,338,0.0,3.0,94,0.00,,BKN055,0.01,VWS V14.00,2013-08-17 02:51:00,
2013-08-16 23:00:00,62.6,61.2,30.12,NNW,338,0.0,2.0,95,0.00,,BKN055,0.01,VWS V14.00,2013-08-17 03:00:00,
2013-08-16 23:01:00,62.6,61.2,30.12,NNW,338,0.0,2.0,95,0.00,,BKN055,0.01,VWS V14.00,2013-08-17 03:01:00,
2013-08-16 23:10:00,62.3,60.8,30.11,NNW,338,0.0,3.0,95,0.00,,BKN055,0.01,VWS V14.00,2013-08-17 03:10:00,
2013-08-16 23:11:00,62.3,60.8,30.11,NNW,338,0.0,3.0,95,0.00,,BKN055,0.01,VWS V14.00,2013-08-17 03:11:00,
2013-08-16 23:20:00,62.1,60.7,30.11,NNW,340,0.0,2.0,95,0.00,,BKN055,0.01,VWS V14.00,2013-08-17 03:20:00,
2013-08-16 23:21:00,62.1,60.7,30.11,NNW,340,0.0,2.0,95,0.00,,BKN055,0.01,VWS V14.00,2013-08-17 03:21:00,
2013-08-16 23:30:00,61.8,60.4,30.11,NNW,340,0.0,4.0,95,0.00,,BKN055,0.01,VWS V14.00,2013-08-17 03:30:00,
2013-08-16 23:31:00,61.8,60.4,30.11,NNW,340,0.0,4.0,95,0.00,,BKN055,0.01,VWS V14.00,2013-08-17 03:31:00,
2013-08-16 23:40:00,61.6,60.2,30.11,NNW,342,0.0,4.0,95,0.00,,BKN055,0.01,VWS V14.00,2013-08-17 03:40:00,
2013-08-16 23:41:00,61.6,60.2,30.11,NNW,342,0.0,4.0,95,0.00,,BKN055,0.01,VWS V14.00,2013-08-17 03:41:00,
2013-08-16 23:50:00,61.4,60.0,30.11,NNW,346,0.0,4.0,95,0.00,,BKN055,0.01,VWS V14.00,2013-08-17 03:50:00,
2013-08-16 23:51:00,61.4,60.0,30.11,NNW,346,0.0,4.0,95,0.00,,BKN055,0.01,VWS V14.00,2013-08-17 03:51:00,